Location: ??????
(33.3472°N, 35.4764°E)
Time: 03:57:25
(UTC+00:00)

Cosmos 2221 - Pass Details

Date: 21 August 2019
Orbit: 592 x 617 km, 82.5° (Epoch: 19 September)

Event Time Altitude Azimuth Distance (km) Brightness Sun altitude
Exits shadow 01:48:02 - 184° (S) 2,194 5.1 -15.7°
Reaches altitude 10° 01:48:36 10° 184° (S) 1,964 4.8 -15.6°
Maximum altitude 01:52:57 85° 96° (E) 622 2.5 -14.8°
Drops below altitude 10° 01:57:21 10° 8° (N) 1,984 5.6 -14.0°
Sets 01:59:35 0° 7° (N) 2,893 6.5 -13.6°
